TIME,DELAY(SENSOR),PRES,T(CTD),SAL,OXYGEN,RAWTEMP,T(OPTODE),TCPHASE,FLUOR,BETA(BETA700),BETA(BETA412),BETA(BETA440),CDOM,C(CSC),ED(ED411.90),ED(ED443.80),ED(ED489.40),ED(ED554.70),LU(LU412.20),LU(LU443.80),LU(LU489.40),LU(LU555.00),COMP,TILTX,TILTX(TILTY),CHECK
1360945529,5805,494.8900146484375000,16.2143001556396500,36.1930999755859400,186.1009063720703000,214.0493011474609400,16.2249507904052730,34.2752494812011700,67,176,97,79,70,11868,2146959323,2147514834,2147274523,2147471497,2147084717,2146946971,2147661330,2147123840,2449,-1,8,63794
1360945647,5803,484.2099914550781000,16.5074005126953120,36.2462997436523440,190.6636962890625000,205.1295013427734400,16.4937400817871100,33.8570289611816400,65,180,96,80,69,11863,2146957851,2147515602,2147276169,2147466834,2147088585,2146948278,2147660544,2147122002,3040,-1,8,25086
1360945762,5805,473.6600036621094000,16.8271007537841800,36.3149986267089840,202.9835968017578000,194.3751068115234400,16.8178901672363280,32.9625015258789060,66,175,96,79,69,11872,2146959378,2147517997,2147271862,2147467675,2147085138,2146953572,2147658267,2147121243,3068,-2,8,9255
1360945891,5806,461.8500061035156000,17.0830993652343750,36.3638000488281250,207.5384979248047000,185.9931945800781200,17.0705890655517580,32.5845413208007800,67,177,95,80,68,11871,2146959277,2147514761,2147272082,2147466486,2147084489,2146950893,2147657362,2147128411,1830,-1,9,31218
1360946006,5808,451.1300048828125000,17.1417999267578120,36.3758010864257800,209.8139953613281200,183.8267974853515600,17.1359195709228500,32.4269104003906250,67,178,96,80,69,11872,2146959259,2147513398,2147273289,2147461760,2147081664,2146953801,2147655698,2147127140,1721,-1,8,21782
1360946121,5806,440.3999938964844000,17.3281993865966800,36.4118995666503900,212.7610015869140600,177.6844940185547000,17.3211708068847660,32.1793212890625000,64,180,96,80,69,11870,2146958646,2147515190,2147271094,2147464576,2147076397,2146954816,2147659529,2147127899,1440,-1,8,58904
1360946238,5805,429.6099853515625000,17.4698009490966800,36.4434013366699200,218.4376983642578000,173.0287017822265600,17.4616203308105470,31.8105506896972660,66,175,96,81,69,11872,2146958939,2147514752,2147270464,2147463104,2147074166,2146957348,2147652461,2147129782,1289,-1,8,12714
1360946365,5808,418.0000000000000000,17.5161991119384770,36.4538993835449200,220.4049072265625000,171.1069946289062500,17.5196094512939450,31.6806602478027340,67,174,97,79,68,11870,2146954971,2147512118,2147272228,2147457298,2147077504,2146954907,2147654400,2147127104,919,-1,8,22950
1360946480,5807,407.5799865722656000,17.5969009399414060,36.4705009460449200,223.4246978759765600,168.6477966308593800,17.5938091278076170,31.4906692504882800,65,176,95,80,68,11870,2146957769,2147512768,2147271030,2147457865,2147078930,2146950701,2147654802,2147132013,896,-1,8,9818
1360946610,5805,396.1199951171875000,17.6993007659912100,36.4921989440918000,225.3876037597656200,165.2803039550781200,17.6954402923584000,31.3448009490966800,66,175,95,81,67,11871,2146956809,2147515867,2147268416,2147453924,2147077677,2146950637,2147649481,2147126546,751,-1,9,55380
1360946737,5806,385.3200073242187500,17.7773990631103500,36.5073013305664060,227.8892059326172000,162.6678924560547000,17.7742900848388670,31.1831893920898440,67,175,97,79,66,11872,2146957641,2147513554,2147268544,2147453760,2147075602,2146956754,2147651017,2147127817,770,-1,8,29681
1360946866,5806,374.6700134277344000,17.8553009033203120,36.5194015502929700,228.4897003173828000,160.1806030273437500,17.8493804931640620,31.1193504333496100,66,175,97,80,67,11871,2146955721,2147513270,2147266742,2147452452,2147083410,2146952749,2147654774,2147126409,178,-1,8,46261
1360947005,5808,363.2699890136719000,17.9456996917724600,36.5303001403808600,225.7832946777343800,157.2761993408203000,17.9370803833007800,31.2161808013916000,67,177,96,80,69,11869,2146958747,2147514075,2147268900,2147456173,2147076845,2146954148,2147653577,2147127716,2687,-1,9,38696
1360947146,5805,351.8399963378906000,17.8768005371093750,36.4889984130859400,213.1022033691406200,159.2079010009765600,17.8787498474121100,31.9067707061767580,67,176,95,81,68,11865,2146961234,2147515309,2147269403,2147453101,2147082185,2146955099,2147651785,2147127972,1679,-1,9,27335
1360947285,5806,340.7099914550781000,17.9759998321533200,36.5051002502441400,210.6450958251953000,156.2015991210937500,17.9695301055908200,31.9995002746582030,68,178,96,80,69,11864,2146958006,2147511259,2147267264,2147453348,2147074934,2146955913,2147652763,2147127908,1876,-2,9,52522
1360947424,5805,330.0199890136719000,18.0904998779296880,36.5232009887695300,210.4745025634765600,152.2841949462890600,18.0878391265869140,31.9550094604492200,66,175,96,80,68,11865,2146961462,2147514660,2147267584,2147451766,2147083300,2146956397,2147653504,2147127478,1420,-1,8,7461
1360947562,5805,317.9700012207031000,18.2448997497558600,36.5499000549316400,214.9499053955078000,146.9582061767578000,18.2487392425537100,31.6399307250976560,67,177,96,80,68,11864,2146959140,2147514560,2147267648,2147454272,2147077741,2146953069,2147653860,2147130505,706,-1,8,49031
1360947677,5806,307.0499877929687500,18.4729003906250000,36.5867004394531250,217.2794036865234400,139.5039978027343800,18.4740390777587900,31.4152698516845700,65,175,95,81,68,11865,2146959753,2147514852,2147266194,2147452928,2147083172,2146957714,2147654784,2147129316,480,-2,8,21274
1360947794,5802,296.2500000000000000,18.5925998687744140,36.5978012084960940,217.1502990722656200,135.5923004150390600,18.5923194885253900,31.3691005706787100,66,177,96,80,68,11865,2146960310,2147514148,2147265124,2147453485,2147084498,2146957138,2147655771,2147127323,3456,-1,8,19868
1360947921,5803,284.7699890136719000,18.6984996795654300,36.6106986999511700,216.5395965576172000,131.9962005615234400,18.7010803222656250,31.3528709411621100,66,174,95,81,69,11867,2146955968,2147513664,2147267803,2147451346,2147083702,2146956772,2147662162,2147126153,2555,-1,8,13622
1360948036,5804,274.4899902343750000,18.8922004699707030,36.6268005371093750,216.0117950439453000,125.5324020385742200,18.8966693878173830,31.2938804626464840,66,173,96,80,68,11863,2146956278,2147514505,2147266304,2147450322,2147083254,2146962002,2147664045,2147129508,1924,-1,9,23491
1360948166,5805,262.7699890136719000,18.9575996398925780,36.6250991821289060,210.7644958496093800,123.5823974609375000,18.9556903839111330,31.5491294860839840,66,173,96,81,68,11865,2146959469,2147515556,2147266669,2147450642,2147085522,2146964507,2147664118,2147130020,1056,-1,9,21384
1360948281,5804,251.8800048828125000,19.0284004211425780,36.6267013549804700,206.8007965087890600,120.7828979492187500,19.0404491424560550,31.7292194366455080,66,174,96,80,68,11864,2146956864,2147511286,2147267136,2147450605,2147081499,2146962651,2147653229,2147130093,621,-2,8,22691
1360948398,5807,240.6100006103515600,19.2103996276855470,36.6277999877929700,206.4895935058593800,115.2107009887695300,19.2092208862304700,31.6714191436767580,65,174,96,81,68,11858,2146960100,2147510966,2147269120,2147449654,2147082925,2146962916,2147657398,2147129810,164,-1,8,64329
1360948513,5804,229.6699981689453000,19.4129009246826170,36.6404991149902340,205.9925994873047000,108.7473983764648400,19.4050807952880860,31.6115703582763670,65,180,96,81,68,11857,2146960064,2147511780,2147268708,2147447524,2147083684,2146964836,2147669659,2147132342,3365,-1,9,47437
1360948628,5807,218.9100036621093800,19.5345001220703120,36.6506996154785160,217.1493988037109400,104.4794998168945300,19.5344905853271500,30.9525108337402340,66,178,95,80,68,11857,2146960411,2147513645,2147268772,2147447460,2147084342,2146969956,2147667748,2147130688,1349,-1,8,25070
1360948745,5805,208.7400054931640600,19.7478008270263670,36.6566009521484400,221.3312072753906200,97.5341262817382800,19.7451992034912100,30.6443290710449220,68,177,97,81,67,11859,2146958171,2147515794,2147266834,2147447424,2147084790,2146976932,2147683181,2147132379,186,-1,8,41649
1360948884,5804,197.8999938964843800,20.0534992218017580,36.6748008728027340,221.6325988769531200,87.5541076660156200,20.0482692718505860,30.4977302551269530,66,179,98,81,68,11850,2146958573,2147517604,2147263030,2147447369,2147087286,2146985892,2147691227,2147131748,2061,-1,9,62644
1360948939,5806,193.8800048828125000,20.1187000274658200,36.6805992126464840,222.9340057373047000,85.4226226806640600,20.1130409240722660,30.4039497375488280,67,179,96,82,68,11854,2146958966,2147513316,2147268452,2147442157,2147084909,2146986404,2147693412,2147132918,2416,-1,9,45123
1360948994,5805,189.9299926757812500,20.1693000793457030,36.6831016540527340,223.4884948730468800,83.7248382568359400,20.1646404266357420,30.3537902832031250,68,178,97,82,67,11850,2146958454,2147516598,2147263478,2147444973,2147087579,2146987218,2147696978,2147130925,2499,-1,9,20604
1360949070,5805,184.9799957275390600,20.3045005798339840,36.6930999755859400,224.1083068847656200,79.2228775024414000,20.3015308380126950,30.2637901306152340,68,182,96,80,67,11853,2146960237,2147513819,2147265033,2147442084,2147085586,2146991323,2147705142,2147129929,2908,-1,9,9251
1360949137,5806,181.2400054931640600,20.4270992279052730,36.7022018432617200,225.9559020996093800,75.4911727905273400,20.4150600433349600,30.1231307983398440,65,182,97,81,67,11854,2146956681,2147512475,2147266368,2147441993,2147087149,2147001408,2147706651,2147133174,2960,-2,9,50444
1360949204,5808,177.6000061035156200,20.5091991424560550,36.7069015502929700,226.1943969726562500,71.3879089355468800,20.5399494171142580,30.0581092834472660,68,178,97,80,68,11855,2146958884,2147515830,2147266349,2147443008,2147089600,2147000493,2147721024,2147134893,38,-2,8,243
1360949259,5807,174.7500000000000000,20.7191009521484380,36.7178001403808600,226.0339965820312500,66.2445220947265600,20.6965904235839840,29.9991798400878900,68,178,98,82,67,11854,2146954002,2147512630,2147265097,2147443913,2147087588,2147008192,2147728594,2147134025,3215,-2,9,32200
1360949352,5803,170.3899993896484400,20.8155002593994140,36.7240982055664060,226.1564941406250000,62.8288192749023440,20.8006801605224600,29.9488391876220700,69,177,95,81,67,11850,2146958738,2147512438,2147263716,2147440539,2147088813,2147020708,2147749430,2147137298,2847,-2,9,6186
1360949431,5809,166.7500000000000000,20.9284992218017580,36.7290000915527340,226.1533966064453000,58.5590515136718750,20.9308605194091800,29.8936805725097660,68,180,97,82,68,11849,2146959533,2147512630,2147267181,2147438253,2147091282,2147034203,2147766939,2147137654,2728,-2,8,42597
1360949522,5803,162.9900054931640600,21.0848007202148440,36.7321014404296900,224.8724975585937500,53.9166488647460940,21.0724906921386720,29.8969001770019530,70,187,99,83,67,11839,2146958107,2147514715,2147265929,2147438180,2147097435,2147048886,2147796050,2147139072,2072,-2,9,44174
1360949637,5801,158.6000061035156200,21.2245006561279300,36.7308006286621100,223.7561035156250000,49.3963890075683600,21.2104797363281250,29.8935794830322270,70,182,97,83,68,11846,2146956224,2147515090,2147272036,2147437650,2147105536,2147098806,2147883154,2147140726,2786,-2,9,37712
1360949743,5810,155.2799987792968800,21.3398990631103500,36.7272987365722660,220.6994018554687500,45.6518096923828100,21.3248691558837900,29.9983100891113280,70,184,99,84,67,11839,2146958482,2147521170,2147273051,2147438994,2147110838,2147136466,2147950546,2147147821,2678,-2,9,16029
1360949930,5807,151.4299926757812500,21.4153995513916000,36.7099990844726560,223.0301055908203000,42.9359283447265600,21.4078693389892580,29.8463096618652340,72,185,98,83,66,11827,2146957878,2147516726,2147271186,2147435401,2147112539,2147134025,2147931419,2147148132,2688,-2,9,19160
1360950078,5805,147.0399932861328000,21.5065002441406250,36.6860008239746100,226.9801025390625000,40.0190391540527340,21.4970493316650400,29.6144905090332030,72,191,101,83,65,11820,2146959469,2147521243,2147275949,2147433069,2147129462,2147203373,2148048164,2147157156,2179,-2,9,46374
1360950193,5804,142.7200012207031200,21.6138992309570300,36.6824989318847660,230.4315032958984400,36.5965385437011700,21.6017494201660160,29.4040393829345700,73,191,100,85,65,11825,2146958701,2147523154,2147287213,2147434633,2147164041,2147369974,2148350409,2147172617,2071,-1,9,29075
1360950296,5806,138.8200073242187500,21.6417007446289060,36.6804008483886700,232.8043060302734400,35.2564582824707000,21.6427497863769530,29.2741699218750000,73,189,99,84,65,11817,2146960137,2147526125,2147283821,2147437979,2147172571,2147373412,2148307282,2147174006,2942,-1,9,45174
1360950388,5807,134.3999938964843800,21.6669998168945300,36.6562004089355500,235.5838012695312500,34.6026382446289060,21.6627693176269530,29.1355991363525400,72,195,98,83,64,11814,2146958034,2147523245,2147285376,2147432877,2147180516,2147370724,2148286710,2147170450,3534,-2,9,52024
1360950455,5806,130.5500030517578000,21.6427001953125000,36.6456985473632800,238.7093048095703000,35.3094711303710940,21.6411304473876950,29.0004501342773440,74,193,100,86,64,11810,2146961298,2147530971,2147299812,2147434395,2147234779,2147594121,2148649883,2147191076,3006,-2,9,6072
1360950510,5806,127.4499969482421900,21.6359004974365230,36.6377983093261700,241.6168060302734400,35.4415512084960940,21.6370906829834000,28.8698406219482420,73,196,102,86,63,11798,2146960356,2147527222,2147291428,2147433874,2147222153,2147490112,2148440356,2147181430,2606,-2,9,62970
1360950589,5804,123.4100036621093800,21.7085990905761720,36.6327018737793000,242.8126068115234400,32.6599807739257800,21.7222309112548830,28.7809391021728500,74,195,99,84,64,11811,2146963474,2147526902,2147295021,2147433664,2147242395,2147532626,2148483099,2147183186,1928,-2,9,46551
1360950670,5805,119.8899993896484400,21.7985992431640620,36.6268997192382800,244.1199035644531200,30.4099807739257800,21.7911396026611330,28.6941509246826170,76,198,100,84,64,11807,2146963574,2147528173,2147289051,2147435730,2147233910,2147458660,2148352073,2147176768,2068,-1,9,3370
1360950773,5807,115.8499984741211000,21.8390007019042970,36.6320991516113300,244.3867034912109400,29.0487499237060550,21.8328304290771500,28.6652507781982420,77,198,101,86,64,11795,2146963638,2147525805,2147281965,2147434642,2147223113,2147393152,2148227693,2147167277,2752,-2,9,45278
1360950888,5802,111.8300018310546900,21.8603992462158200,36.6287994384765600,244.2514038085937500,28.2108306884765620,21.8584995269775400,28.6605796813964840,77,206,101,86,63,11784,2146968758,2147534509,2147297910,2147432073,2147322130,2147669403,2148640237,2147193261,2813,-2,9,43612
1360951003,5805,107.3499984741211000,21.8826999664306640,36.6207008361816400,245.0274963378906200,27.5516109466552730,21.8787002563476560,28.6180400848388670,77,211,101,88,64,11784,2146963108,2147527588,2147288950,2147432054,2147293257,2147523209,2148398445,2147180562,2683,-1,9,23594
1360951082,5805,103.0999984741211000,21.9130992889404300,36.6214981079101560,244.6985015869140600,26.9072303771972660,21.8984508514404300,28.6246109008789060,76,196,101,85,63,11788,2146965659,2147530486,2147287113,2147433115,2147291437,2147478500,2148321216,2147176969,154,-2,9,58364
1360951149,5805,99.3899993896484400,21.9127998352050780,36.6063003540039060,246.6479949951172000,26.3516693115234380,21.9154796600341800,28.5314903259277340,77,212,102,88,63,11772,2146964333,2147531794,2147287908,2147431881,2147322322,2147526875,2148368603,2147183990,436,-1,9,62629
1360951204,5805,96.2900009155273400,21.9549007415771500,36.5976982116699200,247.5946044921875000,24.9985008239746100,21.9569492340087900,28.4729804992675780,78,212,103,86,62,11757,2146971254,2147541915,2147300845,2147431003,2147437897,2147772690,2148701394,2147207012,974,-1,9,1334
1360951259,5806,93.2099990844726600,22.0128002166748050,36.5955009460449200,247.9147949218750000,23.2234191894531250,22.0113792419433600,28.4368400573730470,81,203,103,88,63,11763,2146980233,2147556690,2147330825,2147433078,2147705435,2148338176,2149469074,2147267821,1602,-2,9,35749
1360951317,5806,90.2399978637695300,22.0377998352050780,36.5918006896972660,248.5782928466797000,22.5441398620605470,22.0322093963623050,28.3995494842529300,82,215,103,87,63,11756,2146984950,2147562660,2147339602,2147431305,2147843858,2148575853,2149743469,2147290432,1669,-2,9,13981
1360951372,5806,87.3600006103515600,22.0907993316650400,36.5875015258789060,248.8283996582031200,20.8700599670410160,22.0835609436035160,28.3677406311035160,83,214,103,87,61,11740,2146991872,2147576000,2147352768,2147436699,2147995282,2148824630,2150047177,2147320576,1399,-2,9,32934
1360951427,5806,84.5599975585937500,22.1137008666992200,36.5882987976074200,248.8370056152343800,20.0012607574462900,22.1102104187011720,28.3565196990966800,83,209,104,91,62,11751,2147005723,2147593408,2147387894,2147436854,2148358052,2149494016,2150915501,2147402752,1288,-2,9,19626
1360951482,5807,81.7099990844726600,22.1611995697021500,36.5858993530273440,247.8759002685547000,18.5602703094482420,22.1544303894042970,28.3803195953369140,84,209,103,87,63,11752,2147013293,2147607506,2147406966,2147438774,2148614482,2149877595,2151350317,2147449005,950,-1,9,48851
1360951537,5804,78.7900009155273400,22.1816997528076170,36.5833015441894500,247.4680023193359400,17.8325004577636720,22.1767692565917970,28.3889503479003900,86,207,104,88,63,11726,2147028461,2147633188,2147443529,2147439515,2148991149,2150516699,2152162889,2147528603,1139,-1,9,10490
1360951592,5804,75.8499984741211000,22.1916999816894530,36.5816993713378900,247.5090942382812500,17.3888492584228500,22.1903800964355470,28.3815593719482420,85,207,106,89,62,11725,2147027172,2147617106,2147412050,2147437659,2148847204,2150056438,2151410349,2147479808,1391,-1,8,23163
1360951650,5805,72.7900009155273400,22.2157993316650400,36.5730018615722660,248.2021026611328000,16.6882190704345700,22.2118892669677730,28.3428096771240230,82,212,105,90,63,11733,2147020370,2147607680,2147394322,2147437440,2148763446,2149747529,2150901632,2147439716,1502,-2,9,49647
1360951705,5804,70.0199966430664000,22.2189998626709000,36.5689010620117200,249.0802001953125000,16.5427608489990230,22.2163600921630860,28.3028392791748050,85,217,105,87,62,11728,2147054080,2147659081,2147470546,2147444224,2149625728,2151178066,2152686427,2147629513,1563,-2,9,53836
1360951760,5808,67.2399978637695300,22.2331008911132800,36.5666999816894500,249.5464019775390600,15.9328098297119140,22.2350807189941400,28.2749595642089840,87,214,105,89,63,11731,2147113956,2147743067,2147591268,2147454381,2151078875,2153539355,2155600868,2147951561,1800,-1,9,58632
1360951815,5806,64.5500030517578100,22.3759994506835940,36.5413017272949200,250.1291961669922000,11.8364400863647460,22.3609008789062500,28.1988201141357420,83,218,104,90,62,11711,2147135954,2147765440,2147609572,2147455625,2151655003,2154234624,2156266514,2148064073,1956,-2,9,37191
1360951870,5804,62.3699989318847660,22.4016990661621100,36.5386009216308600,251.1739044189453000,10.7348403930664060,22.3947505950927730,28.1404399871826170,85,211,105,88,62,11718,2147154916,2147782089,2147631524,2147459821,2152012050,2154594358,2156546989,2148117476,1395,-2,9,1091
1360951925,5803,60.5099983215332000,22.4423999786376950,36.5331993103027340,251.6004943847656200,9.4247550964355470,22.4350109100341800,28.1059207916259770,84,222,105,89,61,11712,2147168301,2147792438,2147649627,2147459821,2152370459,2154957156,2156825472,2148175972,1329,-2,9,44300
1360951983,5803,58.7500000000000000,22.4559001922607420,36.5303993225097660,252.2557983398437500,8.8915138244628900,22.4514007568359380,28.0714092254638670,85,213,107,88,63,11714,2147185362,2147810048,2147673581,2147464100,2152733586,2155350107,2157165485,2148225225,1106,-2,9,7593
1360952038,5808,57.1500015258789060,22.4582996368408200,36.5307006835937500,252.4660034179687500,8.7133073806762700,22.4568805694580080,28.0601902008056640,84,213,106,90,62,11716,2147227456,2147863954,2147756754,2147476114,2153778678,2156825408,2158825033,2148435017,819,-2,9,57965
1360952105,5805,55.1800003051757800,22.4612998962402340,36.5251007080078100,252.6911010742187500,8.5654916763305660,22.4614295959472660,28.0486392974853500,83,215,107,91,62,11713,2147273024,2147920237,2147822674,2147484681,2155066038,2158531300,2160605805,2148695625,438,-2,9,22360
1360952260,5805,51.4000015258789060,22.4535999298095700,36.5083999633789060,253.0279998779297000,8.8257188796997070,22.4534301757812500,28.0375995635986330,82,214,104,90,61,11701,2147190089,2147784493,2147597851,2147457417,2152777453,2154590966,2155570779,2148125110,3019,-2,9,44543
1360952318,5806,49.5299987792968750,22.4535999298095700,36.5052986145019500,253.1405944824218800,8.8740081787109380,22.4519405364990230,28.0334701538085940,80,215,107,91,61,11698,2147220214,2147819830,2147639716,2147462573,2153672228,2155689974,2156653787,2148290779,2757,-2,9,20819
1360952364,5804,47.2599983215332000,22.4521007537841800,36.5059013366699200,253.1994018554687500,8.8855142593383790,22.4515895843505860,28.0310401916503900,80,212,107,91,62,11697,2147299666,2147919524,2147756662,2147479890,2155713517,2158411126,2159522605,2148736338,2857,-2,9,34194
1360952397,5804,45.4500007629394500,22.4559001922607420,36.5059013366699200,253.1959075927734400,8.7928714752197270,22.4544391632080080,28.0301094055175780,81,210,107,90,62,11702,2147395200,2148026395,2147895670,2147497225,2158124507,2161635730,2162942637,2149278509,2921,-2,9,9229
1360952430,5803,43.5900001525878900,22.4540996551513670,36.5046997070312500,253.3842010498047000,8.8125410079956050,22.4538307189941400,28.0222396850585940,78,211,108,88,62,11696,2147412909,2148041216,2147908854,2147507081,2158643136,2162039771,2163108004,2149372781,2880,-2,9,42599
1360952463,5808,41.7400016784668000,22.4524993896484380,36.5047988891601560,253.3686981201172000,8.8339805603027340,22.4531707763671880,28.0232791900634770,80,209,104,89,61,11698,2147409810,2148030994,2147883821,2147506797,2158571812,2161625133,2162377408,2149314962,2788,-1,9,5768
1360952509,5808,39.1699981689453100,22.4528007507324220,36.5031013488769500,253.5242004394531200,8.8661403656005860,22.4521808624267580,28.0170402526855470,77,220,107,89,61,11701,2147445805,2148060480,2147907602,2147512713,2159434194,2162412553,2162891172,2149467547,2703,-1,9,2155
1360952542,5809,37.2900009155273440,22.4512996673584000,36.5037994384765600,253.5886993408203000,8.9010534286499020,22.4511108398437500,28.0148200988769530,79,210,107,90,62,11697,2147533952,2148158765,2148014948,2147527433,2161699931,2165239140,2165706532,2150007076,2664,-2,9,61023
1360952575,5804,35.4300003051757800,22.4510002136230470,36.5032997131347660,253.5805053710937500,8.8849248886108400,22.4516105651855470,28.0149402618408200,80,209,105,90,62,11696,2147739154,2148399945,2148302281,2147567597,2167047277,2172177280,2172893604,2151377426,2449,-2,9,28348
1360952610,5805,33.4799995422363300,22.4505004882812500,36.5027008056640600,253.5117034912109400,8.8149995803833000,22.4537601470947270,28.0170707702636720,79,211,108,89,61,11695,2148002093,2148690331,2148645101,2147625252,2173784850,2180684123,2181489865,2153145024,2234,-2,9,2834
1360952643,5803,31.7399997711181640,22.4524002075195300,36.5026016235351560,253.6938018798828000,8.7838230133056640,22.4547195434570300,28.0088500976562500,80,210,106,90,60,11699,2148195785,2148908096,2148892507,2147679725,2178994633,2186998336,2187644187,2154556553,2086,-2,9,62134
1360952689,5805,29.4799995422363280,22.4538002014160160,36.5023002624511700,253.7006072998047000,8.7463521957397460,22.4558696746826170,28.0081195831298830,78,214,106,89,59,11691,2148346523,2149050422,2149038070,2147725458,2183146048,2191478464,2191500452,2155715785,1957,-2,9,62825
1360952735,5801,27.3500003814697270,22.4540996551513670,36.5017013549804700,253.8361968994140600,8.7325839996337890,22.4562892913818360,28.0023002624511720,80,209,105,90,61,11695,2148320320,2148979766,2148916086,2147727789,2182305398,2189277302,2188225865,2155403858,2109,-2,9,64788